Regional Weather Roundup
Issued by NWS

Home | Current Version | Previous Version | Text Only | Print | Product List | Glossary On
Versions: 1 2 3 4 5 6 7 8 9 10 11 12 13 14 15 16 17 18 19 20 21 22 23 24 25 26 27 28 29 30 31 32 33 34 35 36 37 38 39 40 41 42 43 44 45 46 47 48 49 50
000
ASUS45 KSLC 280910
RWRUT

UTAH REGIONAL WEATHER ROUNDUP
NATIONAL WEATHER SERVICE SALT LAKE CITY UT
300 AM MDT THU AUG 28 2014

UTZ001>011-023>025-281000-

NORTHERN UTAH

CITY           SKY/WX    TMP DP  RH WIND       PRES   REMARKS
HILL AFB       CLEAR     60  49  67 E13       30.23S
LOGAN          CLEAR     55  52  89 CALM      30.22S
OGDEN          CLEAR     59  49  69 S8        30.21S
PROVO AIRPORT  CLEAR     55  48  76 SE5       30.25S
SALT LAKE CITY PTCLDY    61  49  64 SE8       30.20S
VERNAL         MOCLDY    55  54  96 E3        30.25S FOG
WENDOVER       CLEAR     63  46  55 CALM      30.19R
HEBER CITY     CLOUDY    50  48  93 CALM      30.31S
WEST JORDAN    CLEAR     61  55  82 S8        30.22F

$$

UTZ012>022-026-027-281000-

SOUTHERN UTAH

CITY           SKY/WX    TMP DP  RH WIND       PRES   REMARKS
BRYCE CANYON   CLEAR     42  39  89 CALM      30.40F
CEDAR CITY     CLEAR     53  44  71 NE3       30.28F
MILFORD        CLEAR     54  47  77 S3        30.25S
MOAB/CYNLANDS  CLOUDY    63  51  65 CALM      30.20F
PRICE          CLEAR     54  45  71 CALM      30.28S
ST GEORGE      SUNNY     72  46  40 E3        30.13R

$$

REGIONAL REPORTS     COLORADO/ARIZONA

CITY           SKY/WX    TMP DP  RH WIND       PRES   REMARKS
CRAIG, CO      LGT RAIN  53  50  89 SW5       30.28S
GRAND JUNCTION CLOUDY    57  56  96 CALM      30.24S
RIFLE          LGT RAIN  55  52  89 CALM      30.27R
MONTROSE       LGT RAIN  54  50  86 E6        30.31R
CORTEZ         CLEAR     46  45  96 E3        30.30S
PAGE, AZ       CLEAR     71  43  36 NW7       30.19S
GRAND CANYON     N/A    N/A N/A N/A MISG        N/A
KINGMAN        CLEAR     61  44  53 CALM      30.13S
FLAGSTAFF      CLEAR     49  47  93 CALM      30.37F

$$

REGIONAL REPORTS    NEVADA/IDAHO/WYOMING

CITY           SKY/WX    TMP DP  RH WIND       PRES   REMARKS
LAS VEGAS, NV  CLEAR     80  38  22 SW7       29.99S
ELY            CLEAR     46  41  82 S10       30.33S
ELKO           CLEAR     53  39  59 E5        30.23R
POCATELLO, ID  CLEAR     62  49  62 E3        30.17F
BURLEY         CLEAR     60  49  66 S12       30.14S
EVANSTON, WY   CLEAR     47  45  93 SW8       30.35S
ROCK SPRINGS   MOCLDY    49  46  90 SW8       30.29R

$$



USA.gov is the U.S. government's official web portal to all federal, state and local government web resources and services.